DL5DI-H Weather Reports


time (UTC)temp
F
wind
direction
speed
knots
gust
knots
rain 1hr
in
rain 24hr
in
rain mn
in
humidity
%
barometer
mb
20260502200000 68 130 0.9 0.9 0.00 0.00 0.00 62 1015.8
20260502195000 68 130 0.9 0.9 0.00 0.00 0.00 62 1015.8
20260502194004 69 204 0.9 0.9 0.00 0.00 0.00 61 1015.9
20260502193001 71 0 0.9 0.9 0.00 0.00 0.00 58 1015.8
20260502192000 71 0 0.9 0.9 0.00 0.00 0.00 58 1015.8
20260502191000 71 135 0.9 1.7 0.00 0.00 0.00 56 1015.7
20260502190000 72 270 0.9 3.5 0.00 0.00 0.00 54 1015.6
20260502185001 72 270 0.9 3.5 0.00 0.00 0.00 54 1015.6
20260502184004 73 219 0.9 1.7 0.00 0.00 0.00 53 1015.5
20260502183004 75 162 0.9 1.7 0.00 0.00 0.00 51 1015.5
20260502182001 75 162 0.9 1.7 0.00 0.00 0.00 51 1015.5
20260502181005 76 186 1.7 3.5 0.00 0.00 0.00 50 1015.3
20260502164001 82 212 1.7 3.5 0.00 0.00 0.00 43 1015.7
20260502163004 81 232 1.7 3.5 0.00 0.00 0.00 44 1015.8
20260502162001 79 162 1.7 3.5 0.00 0.00 0.00 47 1016.0
20260502161004 79 162 1.7 3.5 0.00 0.00 0.00 47 1016.0
20260502152001 82 173 3.5 8.7 0.00 0.00 0.00 39 1017.1
20260502151005 82 173 3.5 8.7 0.00 0.00 0.00 39 1017.1
20260502123005 80 173 3.5 7.8 0.00 0.00 0.00 40 1018.7
20260502122002 80 176 3.5 9.6 0.00 0.00 0.00 42 1018.9
20260502121001 79 148 1.7 4.3 0.00 0.00 0.00 42 1019.0
20260502115001 78 166 3.5 7.8 0.00 0.00 0.00 43 1019.3
20260502114004 77 201 2.6 6.1 0.00 0.00 0.00 44 1019.4
20260502113004 77 139 3.5 6.1 0.00 0.00 0.00 44 1019.6
20260502112001 76 142 2.6 6.1 0.00 0.00 0.00 44 1019.7
20260502111001 75 175 3.5 6.1 0.00 0.00 0.00 45 1019.8
20260502110001 74 178 2.6 5.2 0.00 0.00 0.00 47 1019.9
20260502105004 73 171 3.5 7.8 0.00 0.00 0.00 48 1020.0
20260502104001 72 159 2.6 5.2 0.00 0.00 0.00 49 1020.1
20260502103004 71 174 3.5 7.0 0.00 0.00 0.00 50 1020.3
20260502102001 70 142 2.6 5.2 0.00 0.00 0.00 52 1020.3
20260502101001 68 129 1.7 6.1 0.00 0.00 0.00 54 1020.5
20260502091001 61 108 0.9 2.6 0.00 0.00 0.00 65 1021.4
20260502071004 52 65 0.9 1.7 0.00 0.00 0.00 72 1022.3
20260502070004 51 90 0.9 2.6 0.00 0.00 0.00 73 1022.5
20260502065004 50 45 0.9 1.7 0.00 0.00 0.00 74 1022.4
20260502064001 49 90 0.9 1.7 0.00 0.00 0.00 75 1022.3
20260502063000 49 90 0.9 1.7 0.00 0.00 0.00 75 1022.3
20260502062000 47 250 0.9 1.7 0.00 0.00 0.00 76 1022.5
20260502061004 47 210 0.9 1.7 0.00 0.00 0.00 76 1022.5
20260502060000 47 210 0.9 1.7 0.00 0.00 0.00 76 1022.5
20260502055001 45 184 1.7 2.6 0.00 0.00 0.00 77 1022.5
20260502054000 45 205 1.7 3.5 0.00 0.00 0.00 77 1022.5
20260502053004 45 205 1.7 3.5 0.00 0.00 0.00 77 1022.5
20260502052004 44 203 1.7 3.5 0.00 0.00 0.00 76 1022.4
20260502051005 44 225 0.9 2.6 0.00 0.00 0.00 76 1022.4
20260502050005 44 225 0.9 2.6 0.00 0.00 0.00 76 1022.4
20260502045001 44 214 1.7 2.6 0.00 0.00 0.00 76 1022.4
20260502044001 44 214 1.7 2.6 0.00 0.00 0.00 76 1022.4
20260502043001 44 214 1.7 2.6 0.00 0.00 0.00 76 1022.4
20260502042005 44 214 1.7 2.6 0.00 0.00 0.00 76 1022.4
20260502041000 44 214 1.7 2.6 0.00 0.00 0.00 76 1022.4
20260502040005 44 245 0.9 2.6 0.00 0.00 0.00 75 1022.5
20260502035001 44 245 0.9 2.6 0.00 0.00 0.00 75 1022.5
20260502034004 45 218 1.7 3.5 0.00 0.00 0.00 75 1022.5
20260502033005 45 227 0.9 2.6 0.00 0.00 0.00 75 1022.6
20260502032001 45 227 0.9 2.6 0.00 0.00 0.00 75 1022.6
20260502031000 45 226 1.7 3.5 0.00 0.00 0.00 74 1022.6
20260502030004 46 218 0.9 2.6 0.00 0.00 0.00 74 1022.6
20260502025005 46 218 0.9 2.6 0.00 0.00 0.00 74 1022.6
20260502024001 46 221 1.7 3.5 0.00 0.00 0.00 73 1022.6
20260502023000 46 208 1.7 3.5 0.00 0.00 0.00 73 1022.6
20260502022001 46 208 1.7 3.5 0.00 0.00 0.00 73 1022.6
20260502021004 47 225 0.9 1.7 0.00 0.00 0.00 73 1022.6
20260502020005 47 234 0.9 1.7 0.00 0.00 0.00 72 1022.6
20260502015004 47 234 0.9 1.7 0.00 0.00 0.00 72 1022.6
20260502014001 47 204 1.7 2.6 0.00 0.00 0.00 72 1022.7
20260502013001 47 221 0.9 1.7 0.00 0.00 0.00 72 1022.7
20260502012001 47 225 0.9 2.6 0.00 0.00 0.00 72 1022.8
20260502011000 48 223 1.7 2.6 0.00 0.00 0.00 72 1022.9
20260502010004 48 219 1.7 3.5 0.00 0.00 0.00 71 1022.9
20260502005000 48 221 1.7 3.5 0.00 0.00 0.00 71 1023.0
20260502004000 50 227 0.9 1.7 0.00 0.00 0.00 69 1023.5
20260502003001 50 227 0.9 1.7 0.00 0.00 0.00 69 1023.5
20260502002001 50 227 0.9 1.7 0.00 0.00 0.00 69 1023.5
20260502001001 50 227 0.9 1.7 0.00 0.00 0.00 69 1023.5
20260502000001 50 227 0.9 1.7 0.00 0.00 0.00 69 1023.5
20260501235001 50 227 0.9 1.7 0.00 0.00 0.00 69 1023.5
20260501234000 50 235 0.9 2.6 0.00 0.00 0.00 67 1023.5
20260501233001 51 207 1.7 3.5 0.00 0.00 0.00 67 1023.5
20260501232000 51 211 1.7 3.5 0.00 0.00 0.00 67 1023.6
20260501231005 51 214 0.9 3.5 0.00 0.00 0.00 66 1023.6
20260501230001 51 255 1.7 3.5 0.00 0.00 0.00 66 1023.6
20260501225001 52 220 0.9 1.7 0.00 0.00 0.00 65 1023.6
20260501224004 52 212 0.9 1.7 0.00 0.00 0.00 65 1023.7
20260501223001 53 223 1.7 3.5 0.00 0.00 0.00 64 1023.7
20260501222000 53 216 0.9 3.5 0.00 0.00 0.00 63 1023.7
20260501221004 54 207 1.7 2.6 0.00 0.00 0.00 63 1023.7
20260501220001 54 205 1.7 3.5 0.00 0.00 0.00 63 1023.7
20260501215001 54 227 0.9 2.6 0.00 0.00 0.00 62 1023.7
20260501214005 54 239 1.7 2.6 0.00 0.00 0.00 61 1023.7
20260501213006 55 236 1.7 2.6 0.00 0.00 0.00 60 1023.7
20260501212004 56 217 1.7 3.5 0.00 0.00 0.00 59 1023.7
20260501211004 56 201 0.9 3.5 0.00 0.00 0.00 58 1023.7
20260501210005 57 209 0.9 2.6 0.00 0.00 0.00 58 1023.7
20260501205000 58 225 0.9 2.6 0.00 0.00 0.00 56 1023.7
20260501204004 59 219 0.9 2.6 0.00 0.00 0.00 55 1023.7
20260501203000 60 216 0.9 2.6 0.00 0.00 0.00 54 1023.7
20260501202005 60 201 0.9 1.7 0.00 0.00 0.00 54 1023.7
20260501201005 61 211 0.9 1.7 0.00 0.00 0.00 52 1023.7